Location: Holyhead Bay
(53.3667°N, 4.6667°W)
Time: 19:21:40
(UTC+00:00)

Cosmos 1818 - Pass Details

Date: 24 November 2020
Orbit: 774 x 800 km, 65.0° (Epoch: 17 January)

Event Time Altitude Azimuth Distance (km) Brightness Sun altitude
Rises 16:49:35 0° 315° (NW) 3,312 7.0 -5.9°
Reaches altitude 10° 16:52:01 10° 317° (NW) 2,381 6.3 -6.2°
Maximum altitude 16:57:32 82° 45° (NE) 815 3.6 -6.9°
Drops below altitude 10° 17:03:00 10° 133° (SE) 2,371 5.8 -7.7°
Sets 17:05:26 0° 135° (SE) 3,297 6.6 -8.0°
